Regional Weather Roundup
Issued by NWS

Home | Current Version | Previous Version | Text Only | Print | Product List | Glossary Off
Versions: 1 2 3 4 5 6 7 8 9 10 11 12 13 14 15 16 17 18 19 20 21 22 23 24 25 26 27 28 29 30 31 32 33 34 35 36 37 38 39 40 41 42 43 44 45 46 47 48 49 50

000
ASUS44 KMEG 272210
RWRTN
TENNESSEE HOURLY STATE WEATHER ROUNDUP
NATIONAL WEATHER SERVICE MEMPHIS TN
500 PM CDT FRI MAR 27 2015

TNZ002-004-019-021-049-052-054-088>092-272300-
WEST TENNESSEE

CITY           SKY/WX    TMP DP  RH WIND       PRES   REMARKS
MEMPHIS INTL   PTSUNNY   50  33  52 N13G22    30.10S
NWS MEMPHIS      N/A     48 N/A N/A MISG        N/A
JACKSON        CLOUDY    45  31  58 N20G28    30.09R
DYERSBURG      PTSUNNY   43  21  42 N18G26    30.14R
UNION CITY     CLOUDY    37  30  75 N15       30.11S WCI  28
PARIS          CLOUDY    37  27  65 NW12      30.09R WCI  30
LEXINGTON      CLOUDY    43  30  61 NW15      30.04R
SAVANNAH       PTSUNNY   45  36  70 N7        30.04S
$$

TNZ008-025-027-028-033-062-065-066-272300-
NORTH MIDDLE TENNESSEE

CITY           SKY/WX    TMP DP  RH WIND       PRES   REMARKS
NASHVILLE      CLOUDY    42  36  79 NW8       30.02R
CLARKSVILLE    CLOUDY    39  32  76 N16       30.06R WCI  30
SMYRNA         HVY RAIN  39  36  89 N15       30.03R FOG     WCI  30
COOKEVILLE     MOSUNNY   43  30  61 N12       29.95R
CROSSVILLE     CLOUDY    41  29  62 NW16G24   29.91S
$$

TNZ061-075-076-078-094-096-097-272300-
SOUTH MIDDLE TENNESSEE

CITY           SKY/WX    TMP DP  RH WIND       PRES   REMARKS
FAYETTEVILLE   PTSUNNY   45  30  57 N7        29.96S
TULLAHOMA      PTSUNNY   45  27  49 N13       29.96S
WINCHESTER     MOSUNNY   46  28  49 NW7       29.95S
MCMINNVILLE    MOSUNNY   45  28  53 NW15      29.95S
COLUMBIA       CLOUDY    39  39 100 NW7       30.00S WCI  34
SHELBYVILLE    CLOUDY    46  36  66 NW24G30   29.99R
$$

TNZ017-018-042-046-047-272300-
NORTHEAST TENNESSEE

CITY           SKY/WX    TMP DP  RH WIND       PRES   REMARKS
TRI CITIES     PTSUNNY   45  25  45 N12       29.83R
ELIZABETHTON   CLOUDY    45  23  42 NW9       29.81S
$$

TNZ012-013-036-069-073-074-272300-
CENTRAL EAST TENNESSEE

CITY           SKY/WX    TMP DP  RH WIND       PRES   REMARKS
KNOXVILLE      CLOUDY    48  24  39 NW9       29.86S
OAK RIDGE      PTSUNNY   49  28  44 N10       29.90R
GATLINBURG     MOCLDY    46  27  46 NW10      29.86S
MORRISTOWN     MOCLDY    46  27  46 NW12      29.86S
$$

TNZ083-085-099-272300-
SOUTHEAST TENNESSEE

CITY           SKY/WX    TMP DP  RH WIND       PRES   REMARKS
CHATTANOOGA    PTSUNNY   50  29  44 NW20G26   29.92R
$$

SKY/WX REPORTED AS FAIR MEANS FEW OR NO CLOUDS BELOW
12 THOUSAND FEET.




USA.gov is the U.S. government's official web portal to all federal, state and local government web resources and services.